Location: Newark
(47.0847°N, 2.3941°E)
Time: 17:39:35
(UTC+00:00)

OTV 5 (USA 277) - Visible Passes

Search period start: 17 October 2019 00:00
Search period end: 27 October 2019 00:00
Orbit: 310 x 324 km, 54.5° (Epoch: 08 October)

Date Brightness Start Highest point End Pass type
(mag) Time Alt. Az. Time Alt. Az. Time Alt. Az.
17 Oct ? 04:21:38 34° NNE 04:21:45 35° NNE 04:24:18 10° E visible
18 Oct ? 04:36:01 58° NNW 04:36:24 70° NNE 04:39:07 10° ESE visible
19 Oct ? 04:50:31 42° WSW 04:50:55 47° SW 04:53:34 10° SE visible
20 Oct ? 05:05:08 20° SW 05:05:19 20° SW 05:07:24 10° S visible
